STSAT-3

Last updated on Mon Jun 22 2026 00:03:38 GMT+0000 (Coordinated Universal Time)

1 39422U 13066G 26172.50742744 .00002243 00000+0 17205-3 0 9995 2 39422 97.6223 142.3260 0010913 33.6602 326.5314 15.02776374684850
UTC large
Height (km)
Speed (km/s)
/
Latitude / Longitude
Inclination (degrees)
Orbital Period (minutes)
Azimuth
Elevation
Range (km)
Doppler Factor

Next 0 passes for location: London (51.5072 / 0.1276)

No passes found over London.
STSAT-3